Date String (YYYY-MM-DD hh:mm:ss) UTC,Instrument flags,absolute air pressure of the measurement (hPa),sample flow rate (lpm),inlet stack bypass flow (lpm),air temperature of the measurement (°C),ambient temperature measured by the external sensor (°C),aerosol sample conditioner tube jacket temperature (°C),OPC LED temperature (°C),internal box temperature (°C),relative humidity of the measurement (%),span deviation,mass concentration of particles derived from Lorenz-Mie calculation of OPC scattering (μg/m³),mass concentration of particles derived from Lorenz-Mie calculation of OPC scattering (μg/m³),mass concentration of particles derived from Lorenz-Mie calculation of OPC scattering (μg/m³)
DateTimeUTC,F1_M11,P_M11,Q1_M11,Q2_M11,T1_M11,T2_M11,T3_M11,T4_M11,T5_M11,U1_M11,ZSPAN_M11,X0_M11,X2_M11,X1_M11
2024-03-08 13:00:00,SystemResetWarning,0829.9,5.00,000.00,018.9,018.2,000.0,027.4,020.7,19.7,0000.0,0006.32,0004.51,0004.37
2024-03-08 13:01:00,SystemResetWarning,0829.9,5.00,000.00,018.9,018.1,000.0,027.4,020.6,19.8,0000.0,0006.21,0004.45,0004.31
2024-03-08 13:02:00,SystemResetWarning,0829.9,5.00,000.00,018.8,018.0,000.0,027.4,020.5,19.8,0000.0,0006.18,0004.42,0004.28
2024-03-08 13:03:00,SystemResetWarning,0829.9,5.01,000.00,018.8,017.9,000.0,027.4,020.5,19.9,0000.0,0005.81,0004.40,0004.25
2024-03-08 13:04:00,SystemResetWarning,0829.9,5.01,000.00,018.8,017.8,000.0,027.4,020.4,19.9,0000.0,0005.56,0004.37,0004.22
2024-03-08 13:05:00,SystemResetWarning,0829.9,5.00,000.00,018.7,017.8,000.0,027.4,020.4,19.9,0000.0,0005.48,0004.31,0004.16
2024-03-08 13:06:00,SystemResetWarning,0829.9,4.99,000.00,018.7,017.7,000.0,027.4,020.4,20.0,0000.0,0005.39,0004.26,0004.11
2024-03-08 13:07:00,SystemResetWarning,0830.0,4.99,000.00,018.7,017.7,000.0,027.3,020.3,20.0,0000.0,0005.30,0004.21,0004.07
2024-03-08 13:08:00,SystemResetWarning,0829.9,5.01,000.00,018.6,017.7,000.0,027.3,020.3,20.1,0000.0,0005.25,0004.20,0004.06
2024-03-08 13:09:00,SystemResetWarning,0830.0,5.00,000.00,018.6,017.6,000.0,027.3,020.3,20.1,0000.0,0005.17,0004.18,0004.05
2024-03-08 13:10:00,SystemResetWarning,0830.0,5.01,000.00,018.6,018.0,000.0,027.4,020.5,20.1,0000.0,0005.11,0004.16,0004.04
2024-03-08 13:11:00,SystemResetWarning,0830.0,5.01,000.00,018.8,018.9,000.0,027.5,021.1,19.9,0000.0,0005.07,0004.13,0004.02
2024-03-08 13:12:00,SystemResetWarning,0830.0,4.99,000.00,019.0,019.3,000.0,027.5,021.3,19.6,0000.0,0005.05,0004.11,0003.99
2024-03-08 13:13:00,SystemResetWarning,0830.0,5.00,000.00,019.1,019.1,000.0,027.5,021.1,19.6,0000.0,0004.99,0004.09,0003.98
2024-03-08 13:14:00,SystemResetWarning,0830.0,5.01,000.00,019.1,018.9,000.0,027.4,021.0,19.5,0000.0,0004.87,0004.06,0003.96
2024-03-08 13:15:00,SystemResetWarning,0830.0,5.00,000.00,019.0,018.7,000.0,027.4,020.9,19.5,0000.0,0004.82,0004.03,0003.94
2024-03-08 13:16:00,SystemResetWarning,0830.0,5.00,000.00,019.0,018.5,000.0,027.4,020.8,19.6,0000.0,0004.84,0004.04,0003.94
2024-03-08 13:17:00,SystemResetWarning,0830.0,5.00,000.00,019.0,018.3,000.0,027.4,020.7,19.6,0000.0,0004.92,0004.06,0003.96
2024-03-08 13:18:00,SystemResetWarning,0830.1,5.00,000.00,018.9,018.2,000.0,027.4,020.6,19.7,0000.0,0004.93,0004.06,0003.95
2024-03-08 13:19:00,SystemResetWarning,0830.1,4.99,000.00,018.9,018.1,000.0,027.4,020.6,19.7,0000.0,0004.92,0004.06,0003.96
2024-03-08 13:20:00,SystemResetWarning,0830.0,4.99,000.00,018.8,018.0,000.0,027.4,020.5,19.7,0000.0,0005.00,0004.09,0003.97
2024-03-08 13:21:00,SystemResetWarning,0830.1,5.01,000.00,018.8,017.9,000.0,027.4,020.4,19.8,0000.0,0004.99,0004.09,0003.98
2024-03-08 13:22:00,SystemResetWarning,0830.1,5.01,000.00,018.7,017.8,000.0,027.4,020.4,19.9,0000.0,0005.05,0004.11,0003.98
2024-03-08 13:23:00,SystemResetWarning,0830.1,5.00,000.00,018.7,017.8,000.0,027.4,020.4,19.9,0000.0,0005.16,0004.14,0004.00
2024-03-08 13:24:00,SystemResetWarning,0830.1,4.99,000.00,018.7,017.7,000.0,027.4,020.3,19.9,0000.0,0005.18,0004.16,0004.02
2024-03-08 13:25:00,SystemResetWarning,0830.1,5.00,000.00,018.7,017.8,000.0,027.4,020.4,20.0,0000.0,0005.22,0004.18,0004.03
2024-03-08 13:26:00,SystemResetWarning,0830.2,5.02,000.00,018.8,018.5,000.0,027.5,020.8,19.9,0000.0,0005.33,0004.22,0004.06
2024-03-08 13:27:00,SystemResetWarning,0830.3,4.99,000.00,019.0,019.2,000.0,027.5,021.3,19.6,0000.0,0005.39,0004.25,0004.08
2024-03-08 13:28:00,SystemResetWarning,0830.3,4.99,000.00,019.1,019.2,000.0,027.5,021.2,19.5,0000.0,0006.06,0004.29,0004.11
2024-03-08 13:29:00,SystemResetWarning,0830.3,5.00,000.00,019.1,019.0,000.0,027.5,021.1,19.5,0000.0,0006.25,0004.29,0004.12
2024-03-08 13:30:00,SystemResetWarning,0830.2,5.01,000.00,019.1,018.8,000.0,027.5,021.0,19.5,0000.0,0006.27,0004.31,0004.14
2024-03-08 13:31:00,SystemResetWarning,0830.2,5.00,000.00,019.0,018.6,000.0,027.5,020.8,19.5,0000.0,0006.20,0004.29,0004.14
2024-03-08 13:32:00,SystemResetWarning,0830.2,5.00,000.00,019.0,018.5,000.0,027.5,020.8,19.5,0000.0,0006.17,0004.28,0004.13
2024-03-08 13:33:00,SystemResetWarning,0830.2,5.00,000.00,019.0,018.3,000.0,027.5,020.7,19.6,0000.0,0006.17,0004.28,0004.13
2024-03-08 13:34:00,SystemResetWarning,0830.2,5.00,000.00,018.9,018.2,000.0,027.5,020.6,19.6,0000.0,0006.06,0004.26,0004.12
2024-03-08 13:35:00,SystemResetWarning,0830.2,5.00,000.00,018.9,018.1,000.0,027.5,020.6,19.7,0000.0,0006.07,0004.26,0004.13
2024-03-08 13:36:00,SystemResetWarning,0830.2,5.00,000.00,018.9,018.0,000.0,027.4,020.5,19.7,0000.0,0006.14,0004.29,0004.14
2024-03-08 13:37:00,SystemResetWarning,0830.3,5.00,000.00,018.8,017.9,000.0,027.4,020.5,19.8,0000.0,0006.13,0004.29,0004.14
2024-03-08 13:38:00,SystemResetWarning,0830.3,5.02,000.00,018.8,017.8,000.0,027.4,020.4,19.8,0000.0,0006.11,0004.28,0004.14
2024-03-08 13:39:00,SystemResetWarning,0830.3,5.01,000.00,018.7,017.7,000.0,027.4,020.4,19.9,0000.0,0005.63,0004.27,0004.13
2024-03-08 13:40:00,SystemResetWarning,0830.3,5.00,000.00,018.7,017.7,000.0,027.4,020.3,19.9,0000.0,0005.37,0004.30,0004.14
2024-03-08 13:41:00,SystemResetWarning,0830.2,5.00,000.00,018.7,017.6,000.0,027.4,020.3,20.0,0000.0,0005.53,0004.33,0004.16
2024-03-08 13:42:00,SystemResetWarning,0830.3,5.00,000.00,018.7,018.1,000.0,027.4,020.6,20.0,0000.0,0005.58,0004.35,0004.18
2024-03-08 13:43:00,SystemResetWarning,0830.4,5.02,000.00,018.9,019.0,000.0,027.5,021.1,19.8,0000.0,0005.63,0004.39,0004.21
2024-03-08 13:44:00,SystemResetWarning,0830.4,4.99,000.00,019.1,019.3,000.0,027.5,021.3,19.6,0000.0,0005.71,0004.43,0004.24
2024-03-08 13:45:00,SystemResetWarning,0830.4,4.99,000.00,019.1,019.1,000.0,027.5,021.2,19.5,0000.0,0005.79,0004.47,0004.28
2024-03-08 13:46:00,SystemResetWarning,0830.5,5.01,000.00,019.1,018.9,000.0,027.5,021.0,19.5,0000.0,0005.85,0004.50,0004.31
2024-03-08 13:47:00,SystemResetWarning,0830.4,5.01,000.00,019.1,018.7,000.0,027.5,020.9,19.5,0000.0,0005.90,0004.52,0004.33
2024-03-08 13:48:00,SystemResetWarning,0830.5,5.00,000.00,019.0,018.5,000.0,027.5,020.8,19.5,0000.0,0005.97,0004.56,0004.36
2024-03-08 13:49:00,SystemResetWarning,0830.6,4.99,000.00,019.0,018.4,000.0,027.5,020.7,19.6,0000.0,0006.11,0004.61,0004.40
2024-03-08 13:50:00,SystemResetWarning,0830.4,5.00,000.00,019.0,018.3,000.0,027.5,020.7,19.6,0000.0,0006.11,0004.64,0004.43
2024-03-08 13:51:00,SystemResetWarning,0830.5,5.00,000.00,018.9,018.1,000.0,027.5,020.6,19.6,0000.0,0006.04,0004.65,0004.47
2024-03-08 13:52:00,SystemResetWarning,0830.5,5.01,000.00,018.9,018.0,000.0,027.5,020.5,19.6,0000.0,0006.03,0004.68,0004.51
2024-03-08 13:53:00,SystemResetWarning,0830.5,5.00,000.00,018.8,017.9,000.0,027.5,020.5,19.6,0000.0,0006.11,0004.73,0004.55
2024-03-08 13:54:00,SystemResetWarning,0830.5,5.00,000.00,018.8,017.8,000.0,027.4,020.4,19.7,0000.0,0006.21,0004.75,0004.57
2024-03-08 13:55:00,SystemResetWarning,0830.6,5.00,000.00,018.8,017.7,000.0,027.4,020.4,19.7,0000.0,0006.42,0004.77,0004.60
2024-03-08 13:56:00,SystemResetWarning,0830.6,5.01,000.00,018.7,017.7,000.0,027.4,020.3,19.7,0000.0,0006.49,0004.80,0004.63
2024-03-08 13:57:00,SystemResetWarning,0830.7,5.00,000.00,018.7,017.8,000.0,027.4,020.4,19.7,0000.0,0006.54,0004.83,0004.66
2024-03-08 13:58:00,SystemResetWarning,0830.7,5.01,000.00,018.8,018.5,000.0,027.5,020.9,19.6,0000.0,0006.48,0004.84,0004.68
2024-03-08 13:59:00,SystemResetWarning,0830.7,4.99,000.00,019.0,019.3,000.0,027.6,021.3,19.3,0000.0,0006.43,0004.83,0004.69
